Location: Wanzleben
(52.0609°N, 11.4408°E)
Time: 11:45:03
(UTC+00:00)

Cosmos 2263 Rocket - Pass Details

Date: 26 January 2021
Orbit: 825 x 847 km, 71.0° (Epoch: 24 February)

Event Time Altitude Azimuth Distance (km) Brightness Sun altitude
Rises 19:06:47 0° 293° (WNW) 3,405 6.4 -29.8°
Reaches altitude 10° 19:11:01 10° 324° (NW) 2,467 5.1 -30.4°
Maximum altitude 19:13:13 12° 347° (NNW) 2,310 4.7 -30.7°
Enters shadow 19:14:56 11° 5° (N) 2,403 4.6 -31.0°
